Terug naar catalogus

JILIN-1 GAOFEN 07C 04 XING

ActiefWetenschapSSO
NORAD 69538·PAYLOAD·🇨🇳 China
Deze satellietnaam is nog niet bevestigd door officiële bronnen.

Gelanceerd Jun 15, 2026 vanaf Jiuquan Satellite Launch Center

Loading…

Volgende Passages (komende 24 uur)

TLE

VersSource: Space-Track

Epoch: Sep 14, 2026, 13:41 UTC

1 69538U 26134A   26257.57056345  .00003257  00000-0  21140-3 0  9992
2 69538  97.6932 327.9639 0015266 331.7223  28.3175 15.08699172 13793

Volg JILIN-1 GAOFEN 07C 04 XING in realtime met AllMySat

Download on the App Store